Starlink 4372

operational
NORAD ID: 53233 Int'l Des: 2022-084 Owner: SPXS Country: US Constellation: starlink
LEOCIRCULARRETROGRADESSO

About Starlink 4372

Description loading...

Live Position

Loading 3D Globe...

Upcoming Passes

Altitude History

Altitude vs Time

uPlot chart will show altitude changes over time

Two-Line Element Set

1 53233U 22084AW 25352.59871127 .00000140 00000-0 15425-4 0 9995
2 53233 97.6038 50.8101 0002058 148.1120 212.0229 15.01262234187154
Epoch: Dec 18, 2025 • Age: 8 hours

Current Status

Altitude 574.7 km
Velocity 7.58 km/s
Sub-Earth Point 69.27°N, 37.39°W
Launch Date Jul 22, 2022
Age 3.4 years
Type internet

Technical Details

Classification Payload
Mass 297.00 kg
Dry Mass 275.00 kg
Total Mass 297.00 kg
Length 0.20 m
Diameter 2.80 m
Span 9.00 m
Shape Box + pan
Manufacturer SPXS
Bus Type Starlink
Phase Status In Orbit
Owner/State SPXS/US

Large Constellations

Loading constellations...